[[{"header":{"parameterUnit":"m.s-1","parameterCategory":1,"la1":30.2991,"la2":30.254,"lo1":-89.0895,"lo2":-89.0444,"dy":0.0017,"dx":0.0017,"nx":28,"ny":28,"refTime":"2023-03-18T21:00:00:Z","depth":0,"parameterNumber":2,"parameterNumberName":"U-component_of_WINDS"},"data":[0,0,0,0,0,0,0,0,0,0,0,0,0,0,0,0,0,0,0,0,0,0,0,0,0,0,0,0,0,0,0,0,0,0,0,0,0,0,0,0,0,0,0,0,0,0,0,0,0,0,0,0,0,0,0,0,0,0,1.4674,1.4672,0,1.4546,1.4545,1.4543,1.4491,1.4491,1.4492,1.4492,1.4356,1.4352,1.4348,0,0,0,0,0,0,0,0,0,0,0,0,0,1.4867,1.4864,1.4674,1.4672,1.4671,1.4546,1.4545,1.4543,1.4491,1.4491,1.4492,1.4492,1.4357,1.4352,1.4348,0,0,0,0,0,0,0,0,0,0,0,0,0,1.4766,1.4863,1.4674,1.463,1.4625,1.4547,1.4544,1.4542,1.4491,1.4491,1.4492,1.4492,1.4358,1.4353,1.4347,1.4302,0,0,1.4329,1.4326,0,0,0,0,0,0,0,0,1.4771,1.4759,1.4638,1.4633,1.4627,1.4535,1.4563,1.4461,1.4491,1.4541,1.4492,1.4492,1.4415,1.4404,1.4379,1.4295,1.4289,1.4328,1.4325,1.4322,1.4321,0,0,0,0,0,0,0,1.4779,1.4764,1.4623,1.4636,1.4629,1.4615,1.4601,1.4543,1.4477,1.4537,1.4533,1.4519,1.4412,1.4385,1.4375,1.4287,1.4329,1.4323,1.432,1.4318,1.4159,1.4158,0,0,0,0,0,0,1.4794,1.477,1.4627,1.4619,1.4702,1.4611,1.4595,1.4564,1.4477,1.4465,1.4519,1.4517,1.4395,1.4382,1.437,1.4311,1.4322,1.4317,1.4314,1.416,1.4159,1.4158,0,0,0,0,0,0,1.4798,1.4781,1.4632,1.4693,1.4673,1.4607,1.4572,1.4561,1.4534,1.4464,1.4451,1.4504,1.4394,1.4379,1.4319,1.4305,1.4314,1.4309,1.4161,1.416,1.4159,1.4192,0,0,0,0,0,0,1.4804,1.4783,1.4767,1.4694,1.467,1.4585,1.4571,1.4558,1.4525,1.4522,1.4446,1.4434,1.4394,1.4328,1.4314,1.4297,1.4304,1.4161,1.416,1.4159,1.4192,1.4192,1.4193,0,0,0,0,0,1.4811,1.478,1.4766,1.4749,1.4649,1.4584,1.4571,1.4526,1.4524,1.4506,1.446,1.4437,1.431,1.4323,1.4306,1.4288,1.4162,1.416,1.4159,1.4192,1.4192,1.4193,0,0,0,0,0,0,1.4851,1.477,1.4753,1.4698,1.4649,1.4576,1.4551,1.4529,1.4477,1.4476,1.4421,1.4404,1.4349,1.4313,1.4329,1.4239,1.4234,1.4229,1.4265,1.4265,1.4265,1.4274,1.43,0,0,0,0,0,1.4855,1.4811,1.4741,1.4699,1.4676,1.4618,1.4588,1.4559,1.4504,1.4483,1.4433,1.4379,1.4327,1.4294,1.4242,1.4187,1.4169,1.4166,1.4166,1.4167,1.4163,1.4129,1.4127,1.4153,1.4153,1.4153,0,0,1.4859,1.4809,1.4785,1.4706,1.4664,1.4619,1.4601,1.4553,1.4518,1.4475,1.4416,1.4378,1.4314,1.4257,1.4229,1.4224,1.4152,1.4165,1.4166,1.4161,1.4127,1.4125,1.4123,1.4152,1.4152,1.4152,0,0,1.4844,1.4803,1.4763,1.4722,1.466,1.4622,1.4613,1.4543,1.4516,1.4457,1.4423,1.438,1.4292,1.4248,1.4214,1.4184,1.4159,1.4168,1.4169,1.4138,1.4135,1.4133,1.4121,1.4117,1.4164,1.4165,1.4165,0,1.4858,1.4789,1.4745,1.47,1.4666,1.4627,1.4585,1.4546,1.4469,1.4446,1.4443,1.4331,1.4286,1.4217,1.421,1.4184,1.417,1.4176,1.414,1.4137,1.4134,1.4122,1.4118,1.4166,1.4166,1.4166,1.4166,0,1.4808,1.4761,1.4736,1.4665,1.4628,1.4585,1.4532,1.45,1.4474,1.4436,1.4375,1.432,1.4256,1.4237,1.421,1.4164,1.4163,1.4151,1.4144,1.4134,1.4121,1.4116,1.4168,1.4168,1.4167,1.4167,0,0,1.4814,1.472,1.4711,1.4678,1.4607,1.4568,1.4523,1.4462,1.4435,1.4383,1.4342,1.4269,1.4257,1.4219,1.4187,1.4159,1.4137,1.415,1.4147,1.4148,1.4081,1.4089,1.4085,1.4121,1.412,1.4119,1.4085,0,1.4788,1.4707,1.4666,1.4601,1.4556,1.4518,1.4478,1.4429,1.4393,1.4348,1.4306,1.4255,1.4244,1.4221,1.4192,1.4146,1.4122,1.4148,1.408,1.4078,1.4096,1.4078,1.4087,1.4057,1.408,1.4079,1.4079,0,1.4747,1.4698,1.4629,1.4563,1.4542,1.4507,1.4448,1.4407,1.435,1.4325,1.4283,1.4252,1.42,1.4199,1.4127,1.4145,1.4115,1.4089,1.4086,1.4077,1.4077,1.4066,1.4047,1.4042,1.4071,1.4071,1.4072,0,1.4757,1.4673,1.4621,1.4594,1.4515,1.4491,1.4457,1.4401,1.4367,1.4315,1.4292,1.4234,1.4202,1.4157,1.411,1.4114,1.4042,1.4037,1.4018,1.4019,1.4002,1.4004,1.3977,1.3987,1.3987,1.3987,1.3987,0,1.4731,1.469,1.4624,1.4591,1.4544,1.4497,1.4451,1.4413,1.4364,1.4322,1.4286,1.4247,1.4189,1.4143,1.4106,1.4051,1.4037,1.4014,1.4004,1.4016,1.4019,1.3994,1.3994,1.3986,1.3986,1.3986,1.3986,0,1.4733,1.4687,1.4627,1.4559,1.454,1.4508,1.4448,1.4414,1.4377,1.4324,1.4309,1.4249,1.4193,1.4143,1.4067,1.4043,1.3985,1.3974,1.4005,1.4,1.3982,1.3984,1.3937,1.3927,1.3946,1.3946,1.3946,0,1.4719,1.4687,1.4615,1.4586,1.4553,1.4505,1.4471,1.4423,1.4388,1.4321,1.4295,1.4237,1.4187,1.4099,1.4047,1.3989,1.3975,1.3963,1.3966,1.3978,1.3972,1.3974,1.397,1.3962,1.3962,1.3962,1.3962,0,1.4699,1.4678,1.4631,1.4575,1.4535,1.4489,1.4441,1.4419,1.4362,1.4324,1.4267,1.4229,1.4153,1.4095,1.4031,1.3994,1.3968,1.3962,1.3954,1.3965,1.3983,1.3971,1.4004,1.3963,1.3963,1.3963,1.3963,1.3963,1.4691,1.466,1.4605,1.4553,1.4513,1.4469,1.4434,1.4392,1.4344,1.428,1.4254,1.4196,1.4138,1.4051,1.4014,1.3966,1.3961,1.395,1.3947,1.3944,1.3946,1.3993,1.3955,1.3954,1.3954,1.3954,1.3954,0,1.4667,1.463,1.4583,1.4518,1.4477,1.4459,1.4405,1.4371,1.4321,1.4271,1.4223,1.4157,1.41,1.4045,1.3985,1.3957,1.3943,1.3942,1.3943,1.3934,1.3954,1.3966,1.3954,1.3954,1.3954,1.3954,1.3954,1.3954,1.465,1.4596,1.4569,1.4495,1.4457,1.4401,1.4372,1.433,1.429,1.4218,1.4172,1.4137,1.4084,1.402,1.3966,1.3951,1.393,1.3932,1.3913,1.3933,1.3933,1.3934,1.3945,1.3928,1.3928,1.3897,1.3897,1.3897]},{"header":{"parameterUnit":"m.s-1","parameterCategory":1,"la1":30.2991,"la2":30.254,"lo1":-89.0895,"lo2":-89.0444,"dy":0.0017,"dx":0.0017,"nx":28,"ny":28,"refTime":"2023-03-18T21:00:00:Z","depth":0,"parameterNumber":3,"parameterNumberName":"V-component_of_WINDS"},"data":[0,0,0,0,0,0,0,0,0,0,0,0,0,0,0,0,0,0,0,0,0,0,0,0,0,0,0,0,0,0,0,0,0,0,0,0,0,0,0,0,0,0,0,0,0,0,0,0,0,0,0,0,0,0,0,0,0,0,-5.7597,-5.7599,0,-5.777,-5.7772,-5.7774,-5.7697,-5.7693,-5.7688,-5.7684,-5.7858,-5.7867,-5.7875,0,0,0,0,0,0,0,0,0,0,0,0,0,-5.7195,-5.7203,-5.7597,-5.7599,-5.7601,-5.777,-5.7772,-5.7775,-5.7698,-5.7692,-5.7687,-5.7682,-5.7855,-5.7866,-5.7876,0,0,0,0,0,0,0,0,0,0,0,0,0,-5.7369,-5.7206,-5.7596,-5.7583,-5.7584,-5.777,-5.7772,-5.7775,-5.7699,-5.7692,-5.7686,-5.768,-5.7852,-5.7865,-5.7877,-5.8085,0,0,-5.7917,-5.7922,0,0,0,0,0,0,0,0,-5.736,-5.7384,-5.7583,-5.7584,-5.7585,-5.7705,-5.7695,-5.7879,-5.77,-5.7655,-5.7684,-5.7677,-5.7812,-5.7828,-5.7875,-5.8094,-5.8101,-5.7918,-5.7926,-5.7931,-5.7935,0,0,0,0,0,0,0,-5.7348,-5.7376,-5.7665,-5.7586,-5.7587,-5.7567,-5.7585,-5.7729,-5.7767,-5.7658,-5.7653,-5.7675,-5.7812,-5.7862,-5.7878,-5.8104,-5.7918,-5.7929,-5.7937,-5.7942,-5.8504,-5.851,0,0,0,0,0,0,-5.7336,-5.7367,-5.766,-5.767,-5.7454,-5.758,-5.76,-5.7673,-5.7766,-5.7774,-5.768,-5.7671,-5.7843,-5.7863,-5.7884,-5.8136,-5.7931,-5.7943,-5.7951,-5.8497,-5.8505,-5.8513,0,0,0,0,0,0,-5.7328,-5.7363,-5.7653,-5.7517,-5.7553,-5.7594,-5.7677,-5.768,-5.7731,-5.7782,-5.7788,-5.7725,-5.7839,-5.7866,-5.8037,-5.814,-5.7949,-5.7961,-5.8488,-5.8499,-5.8509,-5.8639,0,0,0,0,0,0,-5.7317,-5.7361,-5.7441,-5.752,-5.756,-5.7804,-5.7683,-5.7688,-5.7754,-5.7743,-5.7826,-5.7834,-5.7836,-5.8018,-5.805,-5.8155,-5.7971,-5.8479,-5.8493,-5.8506,-5.8626,-5.8653,-5.8676,0,0,0,0,0,-5.7303,-5.7469,-5.7445,-5.7481,-5.7662,-5.781,-5.7833,-5.7834,-5.7762,-5.7843,-5.7876,-5.7831,-5.8124,-5.8036,-5.8071,-5.8182,-5.8472,-5.8489,-5.8505,-5.8615,-5.8648,-5.8676,0,0,0,0,0,0,-5.74,-5.7479,-5.7453,-5.7651,-5.7725,-5.7797,-5.7898,-5.7868,-5.7963,-5.7949,-5.7944,-5.7963,-5.8141,-5.8178,-5.8079,-5.8389,-5.8287,-5.8311,-5.8359,-5.8391,-5.8415,-5.8403,-5.7982,0,0,0,0,0,-5.7444,-5.7559,-5.7622,-5.779,-5.7828,-5.7858,-5.7922,-5.7916,-5.7992,-5.8022,-5.8068,-5.8142,-5.825,-5.8322,-5.8425,-5.863,-5.8648,-5.8724,-5.8749,-5.8769,-5.8791,-5.8904,-5.8939,-5.8566,-5.8566,-5.8565,0,0,-5.7537,-5.7595,-5.7667,-5.7811,-5.7867,-5.7986,-5.7884,-5.8013,-5.8101,-5.8041,-5.8207,-5.8243,-5.8325,-5.8515,-5.86,-5.8551,-5.8897,-5.879,-5.8806,-5.8816,-5.8924,-5.8959,-5.8991,-5.8577,-5.8575,-5.8573,0,0,-5.7768,-5.7822,-5.7969,-5.8029,-5.8116,-5.8134,-5.817,-5.8247,-5.827,-5.8435,-5.8393,-5.8497,-5.8684,-5.8745,-5.88,-5.9055,-5.9018,-5.9089,-5.9221,-5.9332,-5.9361,-5.9387,-5.948,-5.9513,-5.9109,-5.911,-5.911,0,-5.7872,-5.805,-5.8048,-5.8183,-5.8247,-5.82,-5.8349,-5.8405,-5.8521,-5.8567,-5.851,-5.8745,-5.8797,-5.9001,-5.9064,-5.9109,-5.915,-5.908,-5.9357,-5.9383,-5.9408,-5.9496,-5.9531,-5.9118,-5.9117,-5.9116,-5.9115,0,-5.8175,-5.83,-5.8408,-5.8523,-5.86,-5.874,-5.8759,-5.8837,-5.8825,-5.8849,-5.9019,-5.9079,-5.9195,-5.9242,-5.923,-5.9446,-5.9413,-5.9357,-5.9255,-5.9451,-5.9535,-5.9568,-5.913,-5.9127,-5.9124,-5.9122,0,0,-5.8472,-5.8586,-5.8626,-5.8679,-5.8772,-5.8868,-5.9006,-5.912,-5.9188,-5.9269,-5.9385,-5.9545,-5.9495,-5.9558,-5.9552,-5.9649,-5.985,-5.9581,-5.9583,-5.9631,-6.0093,-6.0136,-6.0175,-5.9825,-5.9831,-5.9836,-6.0087,0,-5.8712,-5.8956,-5.8959,-5.9184,-5.93,-5.9256,-5.9377,-5.9447,-5.9473,-5.9574,-5.9602,-5.9717,-5.964,-5.9679,-5.9772,-5.9806,-5.9943,-5.9787,-5.9934,-5.9939,-5.9917,-6.0219,-6.0264,-6.0498,-6.0119,-6.0124,-6.0128,0,-5.9024,-5.9118,-5.9355,-5.9433,-5.9482,-5.9591,-5.9696,-5.9793,-5.9872,-5.9884,-5.9956,-5.9936,-6.0076,-5.9969,-6.0163,-6.0058,-6.0117,-6.0143,-6.0152,-6.0167,-6.0047,-6.0244,-6.0572,-6.0608,-6.0179,-6.0175,-6.0171,0,-5.922,-5.9405,-5.9572,-5.9617,-5.9712,-5.979,-5.9833,-5.9905,-5.9974,-6.0066,-6.0111,-6.0217,-6.0275,-6.0358,-6.0367,-6.0288,-6.0563,-6.0456,-6.0578,-6.0578,-6.0639,-6.0636,-6.0984,-6.0675,-6.0674,-6.0673,-6.0673,0,-5.9488,-5.9635,-5.9661,-5.9764,-5.9928,-5.9929,-6.009,-6.0126,-6.0191,-6.03,-6.0267,-6.0369,-6.0375,-6.0479,-6.0487,-6.0648,-6.0674,-6.0688,-6.0689,-6.0693,-6.0691,-6.0733,-6.0718,-6.0683,-6.0681,-6.0679,-6.0677,0,-5.9735,-5.9759,-5.9938,-6.0013,-6.0036,-6.0153,-6.0217,-6.0315,-6.0338,-6.0476,-6.0508,-6.0545,-6.0667,-6.0684,-6.0825,-6.083,-6.1025,-6.1007,-6.0999,-6.0997,-6.1119,-6.1108,-6.1508,-6.1561,-6.1215,-6.1218,-6.1221,0,-5.9906,-6.0019,-6.0107,-6.0179,-6.0226,-6.0341,-6.0412,-6.0417,-6.0492,-6.059,-6.0677,-6.0795,-6.0891,-6.1087,-6.1126,-6.1234,-6.122,-6.1353,-6.1236,-6.1237,-6.1225,-6.1219,-6.1231,-6.1376,-6.138,-6.1383,-6.1385,0,-6.0208,-6.0214,-6.0318,-6.0428,-6.0514,-6.06,-6.068,-6.074,-6.0755,-6.0841,-6.0966,-6.104,-6.1186,-6.1305,-6.1413,-6.1455,-6.1424,-6.1421,-6.1456,-6.1462,-6.1454,-6.1462,-6.1063,-6.1413,-6.141,-6.1408,-6.1406,-6.1405,-6.0424,-6.0523,-6.0601,-6.0719,-6.0781,-6.0857,-6.0954,-6.099,-6.1095,-6.1215,-6.1211,-6.1349,-6.1425,-6.1566,-6.1617,-6.1724,-6.1681,-6.173,-6.1743,-6.1756,-6.1769,-6.1435,-6.1743,-6.1743,-6.1742,-6.1741,-6.1741,0,-6.0726,-6.0774,-6.0883,-6.0998,-6.1091,-6.1053,-6.1141,-6.1221,-6.1344,-6.1417,-6.1513,-6.1657,-6.1772,-6.182,-6.1933,-6.201,-6.1999,-6.204,-6.2035,-6.2046,-6.18,-6.1761,-6.2047,-6.2047,-6.2047,-6.2047,-6.2047,-6.2047,-6.0894,-6.1061,-6.1076,-6.1273,-6.132,-6.1456,-6.151,-6.158,-6.164,-6.1803,-6.19,-6.193,-6.1994,-6.2112,-6.2216,-6.2227,-6.2271,-6.2319,-6.2324,-6.2094,-6.2063,-6.2034,-6.1996,-6.2328,-6.2328,-6.2561,-6.2563,-6.2565]}]]